Weather History for Mansfield, OH

Change the Weather History Date:

Tuesday, October 16, 2012

  Actual Average Record
Temperature  
Mean Temperature 50 °F 52 °F  
Max Temperature 60 °F 62 °F 85 °F (1938)
Min Temperature 40 °F 42 °F 21 °F (1937)
Degree Days  
Heating Degree Days 15 13  
Month to date heating degree days 215 180  
Since 1 July heating degree days 376 330  
Cooling Degree Days 0 0  
Month to date cooling degree days 3 5  
Year to date cooling degree days 950 630  
Moisture  
Dew Point 37 °F    
Average Humidity 64    
Maximum Humidity 83    
Minimum Humidity 44    
Precipitation  
Precipitation 0.00 in 0.09 in 0.98 in (1989)
Month to date precipitation 2.58 1.51  
Year to date precipitation 30.76 35.66  
Snow  
Snow 0.00 in 0.00 in - ()
Month to date snowfall 0.0 0.1  
Since 1 July snowfall 0.0 0.1  
Since 1 September snowfall 0.0 0.1  
Snow Depth 0.00 in    
Sea Level Pressure  
Sea Level Pressure 29.93 in    
Wind  
Wind Speed 6 mph (SSW)    
Max Wind Speed 13 mph    
Max Gust Speed 17 mph    
Visibility 10 miles    
Events      
T = Trace of Precipitation, MM = Missing Value Source: NWS Daily Summary

Daily Weather History Graph

Daily Weather History Graph

Search for Another Location

Airport:

Trip Planner

Search our weather history database for the weather conditions in past years. The results will help you decide how hot, cold, wet, or windy it might be!

Date:

Astronomy

Oct. 16, 2012 Rise Set
Actual Time 7:42 AM EDT 6:47 PM EDT
Civil Twilight 7:15 AM EDT 7:15 PM EDT
Nautical Twilight 6:43 AM EDT 7:46 PM EDT
Astronomical Twilight 6:11 AM EDT 8:18 PM EDT
Moon 9:05 AM EDT (10/16) 7:30 PM EDT (10/16)
Length of Visible Light 11h 59m
Length of Day
11h 04m
New Moon, 2% of the Moon is Illuminated
Oct 16
New Moon
Oct 21
First Quarter
Oct 29
Full
Nov 6
Last Quarter
Nov 13
New

Hourly Weather History & Observations

Time (EDT) Temp. Windchill Dew Point Humidity Pressure Visibility Wind Dir Wind Speed Gust Speed Precip Events Conditions
12:52 AM 46.0 °F 42.5 °F 39.9 °F 79% 29.95 in 10.0 mi WNW 6.9 mph - N/A   Overcast
1:52 AM 46.0 °F 43.9 °F 39.0 °F 76% 29.96 in 10.0 mi WNW 4.6 mph - N/A   Overcast
2:52 AM 45.0 °F 43.5 °F 39.0 °F 80% 29.96 in 10.0 mi WNW 3.5 mph - N/A   Overcast
3:52 AM 45.0 °F 41.2 °F 36.0 °F 71% 29.95 in 10.0 mi NW 6.9 mph - N/A   Overcast
4:52 AM 44.1 °F 42.5 °F 36.0 °F 73% 29.95 in 10.0 mi NNW 3.5 mph - N/A   Overcast
5:52 AM 42.8 °F 40.1 °F 35.6 °F 76% 29.96 in 10.0 mi West 4.6 mph - N/A   Overcast
6:52 AM 43.0 °F - 35.1 °F 74% 30.00 in 10.0 mi Calm Calm - N/A   Overcast
7:52 AM 43.0 °F - 35.1 °F 74% 30.00 in 10.0 mi Calm Calm - N/A   Overcast
8:21 AM 39.2 °F - 35.6 °F 87% 29.99 in 10.0 mi Calm Calm - N/A   Scattered Clouds
8:52 AM 44.1 °F 42.5 °F 37.0 °F 76% 30.01 in 10.0 mi SW 3.5 mph - N/A   Clear
9:52 AM 46.9 °F - 35.1 °F 63% 30.02 in 10.0 mi Variable 4.6 mph - N/A   Clear
10:52 AM 48.0 °F - 36.0 °F 63% 30.00 in 10.0 mi Variable 3.5 mph - N/A   Clear
11:52 AM 50.0 °F - 37.0 °F 61% 30.00 in 10.0 mi South 4.6 mph - N/A   Clear
12:52 PM 53.1 °F - 37.9 °F 57% 29.98 in 10.0 mi SSW 6.9 mph - N/A   Clear
1:52 PM 55.9 °F - 37.9 °F 51% 29.95 in 10.0 mi SSW 4.6 mph - N/A   Clear
2:52 PM 57.9 °F - 37.9 °F 47% 29.90 in 10.0 mi SSE 6.9 mph - N/A   Clear
3:52 PM 59.0 °F - 37.0 °F 44% 29.90 in 10.0 mi South 6.9 mph - N/A   Clear
4:52 PM 59.0 °F - 37.9 °F 46% 29.89 in 10.0 mi South 10.4 mph - N/A   Clear
5:52 PM 55.9 °F - 39.0 °F 53% 29.88 in 10.0 mi SSW 9.2 mph - N/A   Clear
6:52 PM 53.1 °F - 37.0 °F 55% 29.86 in 10.0 mi South 8.1 mph - N/A   Clear
7:52 PM 51.1 °F - 37.9 °F 61% 29.85 in 10.0 mi SSE 8.1 mph - N/A   Clear
8:52 PM 50.0 °F - 37.9 °F 63% 29.83 in 10.0 mi SSE 9.2 mph - N/A   Clear
9:52 PM 50.0 °F - 37.9 °F 63% 29.85 in 10.0 mi SSE 9.2 mph - N/A   Clear
10:52 PM 50.0 °F - 37.9 °F 63% 29.85 in 10.0 mi SSE 10.4 mph - N/A   Clear
11:52 PM 51.1 °F - 37.9 °F 61% 29.85 in 10.0 mi South 10.4 mph - N/A   Clear